Year,Month,Day,Hour,Minute,Value (Times are PST for windgust in km/hr)
2010,07,05,00,00,4.80
2010,07,05,00,01,4.80
2010,07,05,00,02,4.80
2010,07,05,00,03,3.20
2010,07,05,00,04,3.20
2010,07,05,00,05,4.80
2010,07,05,00,06,3.20
2010,07,05,00,07,3.20
2010,07,05,00,08,3.20
2010,07,05,00,09,3.20
2010,07,05,00,10,3.20
2010,07,05,00,11,1.60
2010,07,05,00,12,1.60
2010,07,05,00,13,1.60
2010,07,05,00,14,1.60
2010,07,05,00,16,3.20
2010,07,05,00,17,3.20
2010,07,05,00,18,1.60
2010,07,05,00,19,1.60
2010,07,05,00,20,3.20
2010,07,05,00,21,3.20
2010,07,05,00,22,1.60
2010,07,05,00,23,1.60
2010,07,05,00,24,3.20
2010,07,05,00,25,3.20
2010,07,05,00,26,1.60
2010,07,05,00,27,1.60
2010,07,05,00,28,3.20
2010,07,05,00,29,3.20
2010,07,05,00,30,3.20
2010,07,05,00,31,3.20
2010,07,05,00,32,4.80
2010,07,05,00,33,3.20
2010,07,05,00,34,3.20
2010,07,05,00,35,4.80
2010,07,05,00,36,3.20
2010,07,05,00,37,1.60
2010,07,05,00,38,1.60
2010,07,05,00,39,3.20
2010,07,05,00,40,1.60
2010,07,05,00,41,1.60
2010,07,05,00,42,1.60
2010,07,05,00,43,3.20
2010,07,05,00,44,3.20
2010,07,05,00,45,3.20
2010,07,05,00,46,3.20
2010,07,05,00,47,1.60
2010,07,05,00,48,1.60
2010,07,05,00,49,1.60
2010,07,05,00,50,1.60
2010,07,05,00,52,1.60
2010,07,05,00,53,1.60
2010,07,05,00,54,1.60
2010,07,05,00,55,1.60
2010,07,05,00,56,1.60
2010,07,05,00,57,1.60
2010,07,05,00,58,1.60
2010,07,05,00,59,1.60
2010,07,05,01,00,3.20
2010,07,05,01,01,1.60
2010,07,05,01,02,1.60
2010,07,05,01,03,1.60
2010,07,05,01,04,3.20
2010,07,05,01,05,3.20
2010,07,05,01,06,1.60
2010,07,05,01,07,1.60
2010,07,05,01,08,1.60
2010,07,05,01,09,1.60
2010,07,05,01,13,1.60
2010,07,05,01,14,1.60
2010,07,05,01,15,3.20
2010,07,05,01,16,3.20
2010,07,05,01,17,3.20
2010,07,05,01,18,3.20
2010,07,05,01,19,4.80
2010,07,05,01,20,3.20
2010,07,05,01,21,3.20
2010,07,05,01,22,3.20
2010,07,05,01,23,3.20
2010,07,05,01,24,3.20
2010,07,05,01,25,3.20
2010,07,05,01,26,1.60
2010,07,05,01,27,1.60
2010,07,05,01,29,1.60
2010,07,05,01,30,1.60
2010,07,05,01,31,1.60
2010,07,05,01,32,1.60
2010,07,05,01,33,1.60
2010,07,05,01,34,3.20
2010,07,05,01,35,3.20
2010,07,05,01,36,3.20
2010,07,05,01,37,3.20
2010,07,05,01,38,3.20
2010,07,05,01,39,3.20
2010,07,05,01,40,3.20
2010,07,05,01,41,1.60
2010,07,05,01,42,1.60
2010,07,05,01,43,1.60
2010,07,05,01,44,1.60
2010,07,05,01,45,1.60
2010,07,05,01,46,1.60
2010,07,05,01,47,1.60
2010,07,05,01,48,3.20
2010,07,05,01,49,3.20
2010,07,05,01,50,3.20
2010,07,05,01,51,1.60
2010,07,05,01,52,1.60
2010,07,05,01,54,1.60
2010,07,05,01,55,3.20
2010,07,05,01,56,3.20
2010,07,05,01,57,3.20
2010,07,05,01,58,3.20
2010,07,05,01,59,3.20
2010,07,05,02,00,3.20
2010,07,05,02,01,3.20
2010,07,05,02,02,3.20
2010,07,05,02,03,3.20
2010,07,05,02,04,3.20
2010,07,05,02,05,3.20
2010,07,05,02,06,1.60
2010,07,05,02,07,3.20
2010,07,05,02,09,1.60
2010,07,05,02,10,3.20
2010,07,05,02,11,3.20
2010,07,05,02,12,3.20
2010,07,05,02,13,3.20
2010,07,05,02,14,1.60
2010,07,05,02,15,1.60
2010,07,05,02,16,3.20
2010,07,05,02,17,3.20
2010,07,05,02,18,3.20
2010,07,05,02,19,3.20
2010,07,05,02,20,3.20
2010,07,05,02,21,3.20
2010,07,05,02,22,4.80
2010,07,05,02,23,4.80
2010,07,05,02,24,3.20
2010,07,05,02,25,3.20
2010,07,05,02,26,3.20
2010,07,05,02,27,3.20
2010,07,05,02,28,1.60
2010,07,05,02,29,1.60
2010,07,05,02,30,3.20
2010,07,05,02,31,3.20
2010,07,05,02,32,3.20
2010,07,05,02,33,3.20
2010,07,05,02,34,3.20
2010,07,05,02,35,3.20
2010,07,05,02,36,3.20
2010,07,05,02,37,3.20
2010,07,05,02,38,3.20
2010,07,05,02,39,3.20
2010,07,05,02,40,3.20
2010,07,05,02,41,3.20
2010,07,05,02,42,3.20
2010,07,05,02,43,3.20
2010,07,05,02,44,3.20
2010,07,05,02,45,3.20
2010,07,05,02,46,3.20
2010,07,05,02,47,3.20
2010,07,05,02,48,3.20
2010,07,05,02,49,4.80
2010,07,05,02,50,3.20
2010,07,05,02,51,4.80
2010,07,05,02,52,4.80
2010,07,05,02,53,3.20
2010,07,05,02,54,3.20
2010,07,05,02,55,3.20
2010,07,05,02,56,3.20
2010,07,05,02,57,1.60
2010,07,05,02,58,1.60
2010,07,05,02,59,3.20
2010,07,05,03,00,3.20
2010,07,05,03,01,3.20
2010,07,05,03,02,3.20
2010,07,05,03,03,3.20
2010,07,05,03,06,3.20
2010,07,05,03,07,1.60
2010,07,05,03,08,1.60
2010,07,05,03,09,1.60
2010,07,05,03,10,1.60
2010,07,05,03,11,1.60
2010,07,05,03,12,3.20
2010,07,05,03,13,3.20
2010,07,05,03,14,1.60
2010,07,05,03,15,1.60
2010,07,05,03,16,1.60
2010,07,05,03,17,1.60
2010,07,05,03,34,1.60
2010,07,05,03,35,3.20
2010,07,05,03,36,3.20
2010,07,05,03,37,1.60
2010,07,05,03,38,1.60
2010,07,05,03,39,3.20
2010,07,05,03,40,3.20
2010,07,05,03,41,3.20
2010,07,05,03,42,4.80
2010,07,05,03,43,4.80
2010,07,05,03,44,3.20
2010,07,05,03,45,3.20
2010,07,05,03,46,1.60
2010,07,05,03,47,3.20
2010,07,05,03,48,3.20
2010,07,05,03,49,1.60
2010,07,05,03,50,1.60
2010,07,05,03,51,1.60
2010,07,05,03,52,1.60
2010,07,05,03,53,3.20
2010,07,05,03,54,3.20
2010,07,05,03,55,1.60
2010,07,05,03,56,1.60
2010,07,05,04,17,1.60
2010,07,05,04,18,1.60
2010,07,05,04,19,1.60
2010,07,05,04,27,1.60
2010,07,05,04,28,1.60
2010,07,05,04,29,3.20
2010,07,05,04,30,1.60
2010,07,05,04,40,4.80
2010,07,05,04,41,4.80
2010,07,05,04,42,3.20
2010,07,05,04,43,3.20
2010,07,05,04,44,3.20
2010,07,05,04,45,3.20
2010,07,05,04,46,1.60
2010,07,05,04,47,1.60
2010,07,05,04,48,1.60
2010,07,05,04,55,3.20
2010,07,05,04,56,3.20
2010,07,05,04,57,1.60
2010,07,05,04,58,1.60
2010,07,05,04,59,1.60
2010,07,05,05,02,1.60
2010,07,05,05,03,1.60
2010,07,05,05,04,1.60
2010,07,05,05,05,1.60
2010,07,05,05,12,1.60
2010,07,05,05,13,1.60
2010,07,05,05,14,1.60
2010,07,05,05,30,1.60
2010,07,05,05,31,3.20
2010,07,05,05,32,1.60
2010,07,05,05,35,3.20
2010,07,05,05,36,1.60
2010,07,05,05,37,3.20
2010,07,05,05,38,3.20
2010,07,05,05,39,4.80
2010,07,05,05,40,3.20
2010,07,05,05,41,3.20
2010,07,05,05,42,3.20
2010,07,05,05,43,1.60
2010,07,05,05,44,1.60
2010,07,05,05,45,1.60
2010,07,05,05,46,3.20
2010,07,05,05,47,3.20
2010,07,05,05,48,3.20
2010,07,05,05,49,1.60
2010,07,05,05,50,3.20
2010,07,05,05,51,3.20
2010,07,05,05,52,3.20
2010,07,05,05,53,1.60
2010,07,05,05,54,3.20
2010,07,05,05,55,3.20
2010,07,05,05,56,1.60
2010,07,05,05,57,1.60
2010,07,05,05,58,3.20
2010,07,05,05,59,3.20
2010,07,05,06,00,3.20
2010,07,05,06,01,3.20
2010,07,05,06,02,1.60
2010,07,05,06,03,3.20
2010,07,05,06,04,3.20
2010,07,05,06,05,3.20
2010,07,05,06,06,3.20
2010,07,05,06,07,3.20
2010,07,05,06,08,3.20
2010,07,05,06,09,3.20
2010,07,05,06,10,1.60
2010,07,05,06,11,1.60
2010,07,05,06,12,1.60
2010,07,05,06,13,1.60
2010,07,05,06,14,1.60
2010,07,05,06,15,1.60
2010,07,05,06,16,1.60
2010,07,05,06,17,3.20
2010,07,05,06,18,3.20
2010,07,05,06,19,3.20
2010,07,05,06,20,3.20
2010,07,05,06,21,3.20
2010,07,05,06,22,1.60
2010,07,05,06,23,3.20
2010,07,05,06,24,3.20
2010,07,05,06,25,3.20
2010,07,05,06,26,3.20
2010,07,05,06,27,1.60
2010,07,05,06,28,3.20
2010,07,05,06,29,3.20
2010,07,05,06,30,3.20
2010,07,05,06,31,3.20
2010,07,05,06,32,1.60
2010,07,05,06,33,1.60
2010,07,05,06,34,1.60
2010,07,05,06,35,1.60
2010,07,05,06,36,1.60
2010,07,05,06,37,1.60
2010,07,05,06,38,1.60
2010,07,05,06,39,1.60
2010,07,05,06,40,1.60
2010,07,05,06,41,1.60
2010,07,05,06,42,1.60
2010,07,05,06,43,3.20
2010,07,05,06,44,4.80
2010,07,05,06,45,4.80
2010,07,05,06,46,4.80
2010,07,05,06,47,3.20
2010,07,05,06,48,3.20
2010,07,05,06,49,1.60
2010,07,05,06,50,3.20
2010,07,05,06,51,3.20
2010,07,05,06,52,3.20
2010,07,05,06,53,4.80
2010,07,05,06,54,3.20
2010,07,05,06,55,3.20
2010,07,05,06,56,3.20
2010,07,05,06,57,3.20
2010,07,05,06,58,3.20
2010,07,05,06,59,4.80
2010,07,05,07,00,3.20
2010,07,05,07,01,6.40
2010,07,05,07,02,6.40
2010,07,05,07,03,6.40
2010,07,05,07,04,6.40
2010,07,05,07,05,6.40
2010,07,05,07,06,3.20
2010,07,05,07,07,3.20
2010,07,05,07,08,3.20
2010,07,05,07,09,3.20
2010,07,05,07,10,6.40
2010,07,05,07,11,6.40
2010,07,05,07,12,6.40
2010,07,05,07,13,3.20
2010,07,05,07,14,3.20
2010,07,05,07,15,3.20
2010,07,05,07,16,3.20
2010,07,05,07,17,3.20
2010,07,05,07,18,3.20
2010,07,05,07,19,1.60
2010,07,05,07,20,1.60
2010,07,05,07,21,3.20
2010,07,05,07,22,3.20
2010,07,05,07,23,3.20
2010,07,05,07,24,1.60
2010,07,05,07,25,3.20
2010,07,05,07,26,1.60
2010,07,05,07,27,1.60
2010,07,05,07,29,1.60
2010,07,05,07,30,3.20
2010,07,05,07,31,3.20
2010,07,05,07,32,3.20
2010,07,05,07,33,3.20
2010,07,05,07,34,1.60
2010,07,05,07,35,1.60
2010,07,05,07,39,3.20
2010,07,05,07,40,6.40
2010,07,05,07,41,3.20
2010,07,05,07,42,3.20
2010,07,05,07,43,8.10
2010,07,05,07,44,6.40
2010,07,05,07,45,6.40
2010,07,05,07,46,3.20
2010,07,05,07,47,3.20
2010,07,05,07,48,3.20
2010,07,05,07,49,3.20
2010,07,05,07,50,6.40
2010,07,05,07,51,6.40
2010,07,05,07,52,3.20
2010,07,05,07,53,3.20
2010,07,05,07,54,3.20
2010,07,05,07,55,4.80
2010,07,05,07,56,4.80
2010,07,05,07,57,3.20
2010,07,05,07,58,3.20
2010,07,05,07,59,1.60
2010,07,05,08,00,1.60
2010,07,05,08,01,3.20
2010,07,05,08,02,3.20
2010,07,05,08,03,4.80
2010,07,05,08,04,3.20
2010,07,05,08,05,3.20
2010,07,05,08,06,3.20
2010,07,05,08,07,3.20
2010,07,05,08,08,1.60
2010,07,05,08,09,1.60
2010,07,05,08,10,8.10
2010,07,05,08,11,6.40
2010,07,05,08,12,8.10
2010,07,05,08,13,9.60
2010,07,05,08,14,9.60
2010,07,05,08,15,9.60
2010,07,05,08,16,9.60
2010,07,05,08,17,6.40
2010,07,05,08,18,6.40
2010,07,05,08,19,6.40
2010,07,05,08,20,4.80
2010,07,05,08,21,4.80
2010,07,05,08,22,9.60
2010,07,05,08,23,9.60
2010,07,05,08,24,8.10
2010,07,05,08,25,6.40
2010,07,05,08,26,8.10
2010,07,05,08,27,6.40
2010,07,05,08,28,8.10
2010,07,05,08,29,4.80
2010,07,05,08,30,4.80
2010,07,05,08,31,9.60
2010,07,05,08,32,8.10
2010,07,05,08,33,8.10
2010,07,05,08,34,6.40
2010,07,05,08,35,8.10
2010,07,05,08,36,9.60
2010,07,05,08,37,11.30
2010,07,05,08,38,6.40
2010,07,05,08,39,9.60
2010,07,05,08,40,11.30
2010,07,05,08,41,9.60
2010,07,05,08,42,9.60
2010,07,05,08,43,9.60
2010,07,05,08,44,9.60
2010,07,05,08,45,11.30
2010,07,05,08,46,11.30
2010,07,05,08,47,11.30
2010,07,05,08,48,9.60
2010,07,05,08,49,9.60
2010,07,05,08,50,6.40
2010,07,05,08,51,9.60
2010,07,05,08,52,8.10
2010,07,05,08,53,12.90
2010,07,05,08,54,11.30
2010,07,05,08,55,9.60
2010,07,05,08,56,11.30
2010,07,05,08,57,11.30
2010,07,05,08,58,12.90
2010,07,05,08,59,11.30
2010,07,05,09,00,12.90
2010,07,05,09,01,9.60
2010,07,05,09,02,12.90
2010,07,05,09,03,9.60
2010,07,05,09,04,12.90
2010,07,05,09,05,12.90
2010,07,05,09,06,14.50
2010,07,05,09,07,9.60
2010,07,05,09,08,11.30
2010,07,05,09,09,11.30
2010,07,05,09,10,9.60
2010,07,05,09,11,11.30
2010,07,05,09,12,12.90
2010,07,05,09,13,11.30
2010,07,05,09,14,11.30
2010,07,05,09,15,9.60
2010,07,05,09,16,8.10
2010,07,05,09,17,9.60
2010,07,05,09,18,11.30
2010,07,05,09,19,11.30
2010,07,05,09,20,12.90
2010,07,05,09,21,9.60
2010,07,05,09,22,8.10
2010,07,05,09,23,8.10
2010,07,05,09,24,8.10
2010,07,05,09,25,6.40
2010,07,05,09,26,12.90
2010,07,05,09,27,9.60
2010,07,05,09,28,8.10
2010,07,05,09,29,11.30
2010,07,05,09,30,9.60
2010,07,05,09,31,9.60
2010,07,05,09,32,9.60
2010,07,05,09,33,9.60
2010,07,05,09,34,9.60
2010,07,05,09,35,8.10
2010,07,05,09,36,9.60
2010,07,05,09,37,9.60
2010,07,05,09,38,8.10
2010,07,05,09,39,6.40
2010,07,05,09,40,8.10
2010,07,05,09,41,9.60
2010,07,05,09,42,9.60
2010,07,05,09,43,12.90
2010,07,05,09,44,9.60
2010,07,05,09,45,8.10
2010,07,05,09,46,8.10
2010,07,05,09,47,8.10
2010,07,05,09,48,6.40
2010,07,05,09,49,6.40
2010,07,05,09,50,11.30
2010,07,05,09,51,9.60
2010,07,05,09,52,8.10
2010,07,05,09,53,11.30
2010,07,05,09,54,8.10
2010,07,05,09,55,8.10
2010,07,05,09,56,6.40
2010,07,05,09,57,3.20
2010,07,05,09,58,8.10
2010,07,05,09,59,11.30
2010,07,05,10,00,8.10
2010,07,05,10,01,6.40
2010,07,05,10,02,3.20
2010,07,05,10,03,8.10
2010,07,05,10,04,8.10
2010,07,05,10,05,8.10
2010,07,05,10,06,8.10
2010,07,05,10,07,8.10
2010,07,05,10,08,11.30
2010,07,05,10,09,9.60
2010,07,05,10,10,11.30
2010,07,05,10,11,9.60
2010,07,05,10,12,9.60
2010,07,05,10,13,9.60
2010,07,05,10,14,3.20
2010,07,05,10,15,9.60
2010,07,05,10,16,9.60
2010,07,05,10,17,9.60
2010,07,05,10,18,11.30
2010,07,05,10,19,8.10
2010,07,05,10,20,9.60
2010,07,05,10,21,8.10
2010,07,05,10,22,11.30
2010,07,05,10,23,11.30
2010,07,05,10,24,9.60
2010,07,05,10,25,9.60
2010,07,05,10,26,14.50
2010,07,05,10,27,11.30
2010,07,05,10,28,12.90
2010,07,05,10,29,8.10
2010,07,05,10,30,8.10
2010,07,05,10,31,11.30
2010,07,05,10,32,11.30
2010,07,05,10,33,8.10
2010,07,05,10,34,12.90
2010,07,05,10,35,11.30
2010,07,05,10,36,11.30
2010,07,05,10,37,11.30
2010,07,05,10,38,9.60
2010,07,05,10,39,9.60
2010,07,05,10,40,9.60
2010,07,05,10,41,9.60
2010,07,05,10,42,11.30
2010,07,05,10,43,9.60
2010,07,05,10,44,11.30
2010,07,05,10,45,11.30
2010,07,05,10,46,11.30
2010,07,05,10,47,11.30
2010,07,05,10,48,11.30
2010,07,05,10,49,12.90
2010,07,05,10,50,14.50
2010,07,05,10,51,12.90
2010,07,05,10,52,12.90
2010,07,05,10,53,12.90
2010,07,05,10,54,12.90
2010,07,05,10,55,14.50
2010,07,05,10,56,12.90
2010,07,05,10,57,11.30
2010,07,05,10,58,12.90
2010,07,05,10,59,11.30
2010,07,05,11,00,11.30
2010,07,05,11,01,11.30
2010,07,05,11,02,11.30
2010,07,05,11,03,9.60
2010,07,05,11,04,11.30
2010,07,05,11,05,6.40
2010,07,05,11,06,9.60
2010,07,05,11,07,9.60
2010,07,05,11,08,9.60
2010,07,05,11,09,8.10
2010,07,05,11,10,12.90
2010,07,05,11,11,11.30
2010,07,05,11,12,12.90
2010,07,05,11,13,12.90
2010,07,05,11,14,12.90
2010,07,05,11,15,11.30
2010,07,05,11,16,12.90
2010,07,05,11,17,11.30
2010,07,05,11,18,11.30
2010,07,05,11,19,8.10
2010,07,05,11,20,9.60
2010,07,05,11,21,8.10
2010,07,05,11,22,11.30
2010,07,05,11,23,11.30
2010,07,05,11,24,11.30
2010,07,05,11,25,14.50
2010,07,05,11,26,12.90
2010,07,05,11,27,12.90
2010,07,05,11,28,12.90
2010,07,05,11,29,9.60
2010,07,05,11,30,9.60
2010,07,05,11,31,14.50
2010,07,05,11,32,14.50
2010,07,05,11,33,12.90
2010,07,05,11,34,11.30
2010,07,05,11,35,12.90
2010,07,05,11,36,11.30
2010,07,05,11,37,11.30
2010,07,05,11,38,12.90
2010,07,05,11,39,16.10
2010,07,05,11,40,12.90
2010,07,05,11,41,14.50
2010,07,05,11,42,12.90
2010,07,05,11,43,17.70
2010,07,05,11,44,16.10
2010,07,05,11,45,14.50
2010,07,05,11,46,12.90
2010,07,05,11,47,12.90
2010,07,05,11,48,12.90
2010,07,05,11,49,12.90
2010,07,05,11,50,14.50
2010,07,05,11,51,14.50
2010,07,05,11,52,14.50
2010,07,05,11,53,14.50
2010,07,05,11,54,14.50
2010,07,05,11,55,12.90
2010,07,05,11,56,12.90
2010,07,05,11,57,12.90
2010,07,05,11,58,12.90
2010,07,05,11,59,12.90
2010,07,05,12,00,9.60
2010,07,05,12,01,9.60
2010,07,05,12,02,9.60
2010,07,05,12,03,14.50
2010,07,05,12,04,16.10
2010,07,05,12,05,14.50
2010,07,05,12,06,11.30
2010,07,05,12,07,12.90
2010,07,05,12,08,12.90
2010,07,05,12,09,14.50
2010,07,05,12,10,12.90
2010,07,05,12,11,14.50
2010,07,05,12,12,14.50
2010,07,05,12,13,12.90
2010,07,05,12,14,14.50
2010,07,05,12,15,12.90
2010,07,05,12,16,11.30
2010,07,05,12,17,9.60
2010,07,05,12,18,9.60
2010,07,05,12,19,12.90
2010,07,05,12,20,12.90
2010,07,05,12,21,14.50
2010,07,05,12,22,9.60
2010,07,05,12,23,11.30
2010,07,05,12,24,12.90
2010,07,05,12,25,11.30
2010,07,05,12,26,12.90
2010,07,05,12,27,12.90
2010,07,05,12,28,14.50
2010,07,05,12,29,12.90
2010,07,05,12,30,12.90
2010,07,05,12,31,12.90
2010,07,05,12,32,11.30
2010,07,05,12,33,16.10
2010,07,05,12,34,12.90
2010,07,05,12,35,11.30
2010,07,05,12,36,11.30
2010,07,05,12,37,12.90
2010,07,05,12,38,12.90
2010,07,05,12,39,12.90
2010,07,05,12,40,11.30
2010,07,05,12,41,12.90
2010,07,05,12,42,11.30
2010,07,05,12,43,11.30
2010,07,05,12,44,11.30
2010,07,05,12,45,11.30
2010,07,05,12,46,11.30
2010,07,05,12,47,12.90
2010,07,05,12,48,8.10
2010,07,05,12,49,9.60
2010,07,05,12,50,14.50
2010,07,05,12,51,12.90
2010,07,05,12,52,11.30
2010,07,05,12,53,11.30
2010,07,05,12,54,11.30
2010,07,05,12,55,12.90
2010,07,05,12,56,12.90
2010,07,05,12,57,12.90
2010,07,05,12,58,12.90
2010,07,05,12,59,11.30
2010,07,05,13,00,11.30
2010,07,05,13,01,11.30
2010,07,05,13,02,12.90
2010,07,05,13,03,8.10
2010,07,05,13,04,12.90
2010,07,05,13,05,14.50
2010,07,05,13,06,14.50
2010,07,05,13,07,14.50
2010,07,05,13,08,14.50
2010,07,05,13,09,6.40
2010,07,05,13,10,12.90
2010,07,05,13,11,16.10
2010,07,05,13,12,12.90
2010,07,05,13,13,12.90
2010,07,05,13,14,12.90
2010,07,05,13,15,11.30
2010,07,05,13,16,11.30
2010,07,05,13,17,14.50
2010,07,05,13,18,12.90
2010,07,05,13,19,11.30
2010,07,05,13,20,12.90
2010,07,05,13,21,11.30
2010,07,05,13,22,14.50
2010,07,05,13,23,14.50
2010,07,05,13,24,16.10
2010,07,05,13,25,14.50
2010,07,05,13,26,14.50
2010,07,05,13,27,14.50
2010,07,05,13,28,12.90
2010,07,05,13,29,12.90
2010,07,05,13,30,12.90
2010,07,05,13,31,12.90
2010,07,05,13,32,14.50
2010,07,05,13,33,14.50
2010,07,05,13,34,14.50
2010,07,05,13,35,12.90
2010,07,05,13,36,11.30
2010,07,05,13,37,16.10
2010,07,05,13,38,11.30
2010,07,05,13,39,9.60
2010,07,05,13,40,12.90
2010,07,05,13,41,12.90
2010,07,05,13,42,12.90
2010,07,05,13,43,12.90
2010,07,05,13,44,14.50
2010,07,05,13,45,12.90
2010,07,05,13,46,14.50
2010,07,05,13,47,12.90
2010,07,05,13,48,14.50
2010,07,05,13,49,14.50
2010,07,05,13,50,14.50
2010,07,05,13,51,14.50
2010,07,05,13,52,14.50
2010,07,05,13,53,12.90
2010,07,05,13,54,11.30
2010,07,05,13,55,12.90
2010,07,05,13,56,11.30
2010,07,05,13,57,12.90
2010,07,05,13,58,14.50
2010,07,05,13,59,12.90
2010,07,05,14,00,9.60
2010,07,05,14,01,11.30
2010,07,05,14,02,8.10
2010,07,05,14,03,9.60
2010,07,05,14,04,12.90
2010,07,05,14,05,14.50
2010,07,05,14,06,19.30
2010,07,05,14,07,16.10
2010,07,05,14,08,14.50
2010,07,05,14,09,12.90
2010,07,05,14,10,8.10
2010,07,05,14,11,9.60
2010,07,05,14,12,9.60
2010,07,05,14,13,8.10
2010,07,05,14,14,11.30
2010,07,05,14,15,17.70
2010,07,05,14,16,12.90
2010,07,05,14,17,14.50
2010,07,05,14,18,16.10
2010,07,05,14,19,14.50
2010,07,05,14,20,11.30
2010,07,05,14,21,12.90
2010,07,05,14,22,17.70
2010,07,05,14,23,12.90
2010,07,05,14,24,16.10
2010,07,05,14,25,16.10
2010,07,05,14,26,17.70
2010,07,05,14,27,14.50
2010,07,05,14,28,16.10
2010,07,05,14,29,9.60
2010,07,05,14,30,11.30
2010,07,05,14,31,11.30
2010,07,05,14,32,14.50
2010,07,05,14,33,14.50
2010,07,05,14,34,14.50
2010,07,05,14,35,14.50
2010,07,05,14,36,12.90
2010,07,05,14,37,17.70
2010,07,05,14,38,12.90
2010,07,05,14,39,9.60
2010,07,05,14,40,14.50
2010,07,05,14,41,14.50
2010,07,05,14,42,14.50
2010,07,05,14,43,16.10
2010,07,05,14,44,16.10
2010,07,05,14,45,17.70
2010,07,05,14,46,17.70
2010,07,05,14,47,14.50
2010,07,05,14,48,14.50
2010,07,05,14,49,12.90
2010,07,05,14,50,19.30
2010,07,05,14,51,9.60
2010,07,05,14,52,16.10
2010,07,05,14,53,12.90
2010,07,05,14,54,14.50
2010,07,05,14,55,17.70
2010,07,05,14,56,11.30
2010,07,05,14,57,17.70
2010,07,05,14,58,12.90
2010,07,05,14,59,14.50
2010,07,05,15,00,16.10
2010,07,05,15,01,16.10
2010,07,05,15,02,19.30
2010,07,05,15,03,14.50
2010,07,05,15,04,14.50
2010,07,05,15,05,14.50
2010,07,05,15,06,14.50
2010,07,05,15,07,11.30
2010,07,05,15,08,14.50
2010,07,05,15,09,16.10
2010,07,05,15,10,20.90
2010,07,05,15,11,14.50
2010,07,05,15,12,12.90
2010,07,05,15,13,17.70
2010,07,05,15,14,19.30
2010,07,05,15,15,17.70
2010,07,05,15,16,14.50
2010,07,05,15,17,12.90
2010,07,05,15,18,17.70
2010,07,05,15,19,16.10
2010,07,05,15,20,17.70
2010,07,05,15,21,14.50
2010,07,05,15,22,12.90
2010,07,05,15,23,9.60
2010,07,05,15,24,11.30
2010,07,05,15,25,14.50
2010,07,05,15,26,14.50
2010,07,05,15,27,17.70
2010,07,05,15,28,14.50
2010,07,05,15,29,12.90
2010,07,05,15,30,14.50
2010,07,05,15,31,11.30
2010,07,05,15,32,11.30
2010,07,05,15,33,11.30
2010,07,05,15,34,12.90
2010,07,05,15,35,17.70
2010,07,05,15,36,12.90
2010,07,05,15,37,14.50
2010,07,05,15,38,14.50
2010,07,05,15,39,17.70
2010,07,05,15,40,12.90
2010,07,05,15,41,9.60
2010,07,05,15,42,17.70
2010,07,05,15,43,16.10
2010,07,05,15,44,20.90
2010,07,05,15,45,16.10
2010,07,05,15,46,12.90
2010,07,05,15,47,14.50
2010,07,05,15,48,17.70
2010,07,05,15,49,11.30
2010,07,05,15,50,17.70
2010,07,05,15,51,16.10
2010,07,05,15,52,12.90
2010,07,05,15,53,14.50
2010,07,05,15,54,17.70
2010,07,05,15,55,20.90
2010,07,05,15,56,22.50
2010,07,05,15,57,17.70
2010,07,05,15,58,12.90
2010,07,05,15,59,11.30
2010,07,05,16,00,11.30
2010,07,05,16,01,16.10
2010,07,05,16,02,12.90
2010,07,05,16,03,11.30
2010,07,05,16,04,16.10
2010,07,05,16,05,16.10
2010,07,05,16,06,19.30
2010,07,05,16,07,17.70
2010,07,05,16,08,16.10
2010,07,05,16,09,9.60
2010,07,05,16,10,8.10
2010,07,05,16,11,11.30
2010,07,05,16,12,12.90
2010,07,05,16,13,16.10
2010,07,05,16,14,14.50
2010,07,05,16,15,16.10
2010,07,05,16,16,14.50
2010,07,05,16,17,11.30
2010,07,05,16,18,9.60
2010,07,05,16,19,14.50
2010,07,05,16,20,9.60
2010,07,05,16,21,8.10
2010,07,05,16,22,12.90
2010,07,05,16,23,14.50
2010,07,05,16,24,14.50
2010,07,05,16,25,12.90
2010,07,05,16,26,14.50
2010,07,05,16,27,16.10
2010,07,05,16,28,12.90
2010,07,05,16,29,11.30
2010,07,05,16,30,11.30
2010,07,05,16,31,14.50
2010,07,05,16,32,9.60
2010,07,05,16,33,11.30
2010,07,05,16,34,11.30
2010,07,05,16,35,14.50
2010,07,05,16,36,14.50
2010,07,05,16,37,12.90
2010,07,05,16,38,14.50
2010,07,05,16,39,17.70
2010,07,05,16,40,14.50
2010,07,05,16,41,16.10
2010,07,05,16,42,16.10
2010,07,05,16,43,17.70
2010,07,05,16,44,19.30
2010,07,05,16,45,12.90
2010,07,05,16,46,16.10
2010,07,05,16,47,12.90
2010,07,05,16,48,17.70
2010,07,05,16,49,17.70
2010,07,05,16,50,9.60
2010,07,05,16,51,9.60
2010,07,05,16,52,14.50
2010,07,05,16,53,16.10
2010,07,05,16,54,14.50
2010,07,05,16,55,12.90
2010,07,05,16,56,14.50
2010,07,05,16,57,12.90
2010,07,05,16,58,14.50
2010,07,05,16,59,9.60
2010,07,05,17,00,11.30
2010,07,05,17,01,12.90
2010,07,05,17,02,12.90
2010,07,05,17,03,14.50
2010,07,05,17,04,12.90
2010,07,05,17,05,12.90
2010,07,05,17,06,11.30
2010,07,05,17,07,14.50
2010,07,05,17,08,14.50
2010,07,05,17,09,14.50
2010,07,05,17,10,14.50
2010,07,05,17,11,9.60
2010,07,05,17,12,9.60
2010,07,05,17,13,9.60
2010,07,05,17,14,9.60
2010,07,05,17,15,9.60
2010,07,05,17,16,11.30
2010,07,05,17,17,11.30
2010,07,05,17,18,11.30
2010,07,05,17,19,11.30
2010,07,05,17,20,9.60
2010,07,05,17,21,9.60
2010,07,05,17,22,9.60
2010,07,05,17,23,14.50
2010,07,05,17,24,11.30
2010,07,05,17,25,8.10
2010,07,05,17,26,8.10
2010,07,05,17,27,8.10
2010,07,05,17,28,8.10
2010,07,05,17,29,8.10
2010,07,05,17,30,8.10
2010,07,05,17,31,8.10
2010,07,05,17,32,9.60
2010,07,05,17,33,12.90
2010,07,05,17,34,9.60
2010,07,05,17,35,9.60
2010,07,05,17,36,8.10
2010,07,05,17,37,9.60
2010,07,05,17,38,9.60
2010,07,05,17,39,9.60
2010,07,05,17,40,16.10
2010,07,05,17,41,8.10
2010,07,05,17,42,9.60
2010,07,05,17,43,11.30
2010,07,05,17,44,9.60
2010,07,05,17,45,9.60
2010,07,05,17,46,14.50
2010,07,05,17,47,12.90
2010,07,05,17,48,12.90
2010,07,05,17,49,14.50
2010,07,05,17,50,14.50
2010,07,05,17,51,16.10
2010,07,05,17,52,12.90
2010,07,05,17,53,14.50
2010,07,05,17,54,12.90
2010,07,05,17,55,11.30
2010,07,05,17,56,14.50
2010,07,05,17,57,14.50
2010,07,05,17,58,9.60
2010,07,05,17,59,12.90
2010,07,05,18,00,11.30
2010,07,05,18,01,11.30
2010,07,05,18,02,12.90
2010,07,05,18,03,9.60
2010,07,05,18,04,11.30
2010,07,05,18,05,11.30
2010,07,05,18,06,11.30
2010,07,05,18,07,12.90
2010,07,05,18,08,14.50
2010,07,05,18,09,12.90
2010,07,05,18,10,11.30
2010,07,05,18,11,11.30
2010,07,05,18,12,9.60
2010,07,05,18,13,8.10
2010,07,05,18,14,9.60
2010,07,05,18,15,8.10
2010,07,05,18,16,9.60
2010,07,05,18,17,9.60
2010,07,05,18,18,11.30
2010,07,05,18,19,9.60
2010,07,05,18,20,12.90
2010,07,05,18,21,11.30
2010,07,05,18,22,11.30
2010,07,05,18,23,11.30
2010,07,05,18,24,11.30
2010,07,05,18,25,9.60
2010,07,05,18,26,11.30
2010,07,05,18,27,11.30
2010,07,05,18,28,8.10
2010,07,05,18,29,8.10
2010,07,05,18,30,8.10
2010,07,05,18,31,6.40
2010,07,05,18,32,8.10
2010,07,05,18,33,8.10
2010,07,05,18,34,9.60
2010,07,05,18,35,9.60
2010,07,05,18,36,11.30
2010,07,05,18,37,9.60
2010,07,05,18,38,11.30
2010,07,05,18,39,11.30
2010,07,05,18,40,8.10
2010,07,05,18,41,9.60
2010,07,05,18,42,12.90
2010,07,05,18,43,9.60
2010,07,05,18,44,9.60
2010,07,05,18,45,8.10
2010,07,05,18,46,8.10
2010,07,05,18,47,11.30
2010,07,05,18,48,9.60
2010,07,05,18,49,8.10
2010,07,05,18,50,11.30
2010,07,05,18,51,11.30
2010,07,05,18,52,11.30
2010,07,05,18,53,11.30
2010,07,05,18,54,8.10
2010,07,05,18,55,11.30
2010,07,05,18,56,9.60
2010,07,05,18,57,12.90
2010,07,05,18,58,9.60
2010,07,05,18,59,8.10
2010,07,05,19,00,11.30
2010,07,05,19,01,11.30
2010,07,05,19,02,9.60
2010,07,05,19,03,9.60
2010,07,05,19,04,11.30
2010,07,05,19,05,11.30
2010,07,05,19,06,11.30
2010,07,05,19,07,11.30
2010,07,05,19,08,9.60
2010,07,05,19,09,8.10
2010,07,05,19,10,8.10
2010,07,05,19,11,9.60
2010,07,05,19,12,8.10
2010,07,05,19,13,9.60
2010,07,05,19,14,9.60
2010,07,05,19,15,8.10
2010,07,05,19,16,8.10
2010,07,05,19,17,9.60
2010,07,05,19,18,8.10
2010,07,05,19,19,11.30
2010,07,05,19,20,9.60
2010,07,05,19,21,8.10
2010,07,05,19,22,12.90
2010,07,05,19,23,11.30